Volver al catálogo

FENGYUN 1C DEB

ActivoSSO
NORAD 30241·DEBRIS·🇨🇳 China

Lanzado May 10, 1999 desde Taiyuan Satellite Launch Center

Loading…

Próximos Pases (próximas 24 horas)

TLE

ActualizadoSource: Space-Track

Época: Sep 14, 2026, 15:15 UTC

1 30241U 99025XA  26257.63541859  .00000212  00000-0  13282-3 0  9992
2 30241  99.1870  40.6121 0146032  30.5247 343.3666 14.09816729  8003

Sigue FENGYUN 1C DEB en tiempo real con AllMySat

Download on the App Store